Wheaton NDB, MN

8:33 PM CDT on April 19, 2018 (GMT -0500)
Wheaton Municipal

Weather History for KETH - October, 2013

Change the Weather History Date:

Saturday, October 26, 2013

  Actual Average Record
Temperature  
Mean Temperature 38 °F -  
Max Temperature 46 °F 59 °F 85 °F (1955)
Min Temperature 30 °F 33 °F 15 °F (1976)
Degree Days  
Heating Degree Days 27    
Moisture  
Dew Point 30 °F    
Average Humidity 68    
Maximum Humidity 86    
Minimum Humidity 50    
Precipitation  
Precipitation 0.00 in - - ()
Sea Level Pressure  
Sea Level Pressure 30.12 in    
Wind  
Wind Speed 11 mph (WNW)    
Max Wind Speed 20 mph    
Max Gust Speed 29 mph    
Visibility 10 miles    
Events      
Averages and records for this station are not official NWS values.
T = Trace of Precipitation, MM = Missing Value Source: NWS Daily Summary

Daily Weather History Graph

Daily Weather History Graph

Search for Another Location

Airport or City:

Astronomy

Oct. 26, 2013 Rise Set
Actual Time 7:58 AM CDT 6:21 PM CDT
Civil Twilight 7:27 AM CDT 6:51 PM CDT
Nautical Twilight 6:52 AM CDT 7:26 PM CDT
Astronomical Twilight 6:18 AM CDT 8:01 PM CDT
Moon No Moon Rise 2:17 PM CDT (10/26)
Length of Visible Light 11h 24m
Length of Day
10h 23m
Waning Gibbous, 53% of the Moon is Illuminated
Oct 26
Waning Gibbous
Oct 26
Last Quarter
Nov 3
New
Nov 9
First Quarter
Nov 17
Full

Hourly Weather History & Observations

Time (CDT) Temp. Windchill Dew Point Humidity Pressure Visibility Wind Dir Wind Speed Gust Speed Precip Events Conditions
12:15 AM 44.6 °F 38.1 °F 33.8 °F 66% 29.98 in 10.0 mi NNW 13.8 mph 28.8 mph N/A   Clear
12:35 AM 42.8 °F 36.2 °F 32.0 °F 66% 29.98 in 10.0 mi NNW 12.7 mph 18.4 mph N/A   Clear
12:54 AM 42.8 °F 37.5 °F 32.0 °F 66% 29.99 in 10.0 mi NNW 9.2 mph - N/A   Clear
1:15 AM 39.2 °F 33.6 °F 33.8 °F 81% 30.00 in 10.0 mi WNW 8.1 mph - N/A   Clear
1:34 AM 39.2 °F 33.6 °F 32.0 °F 75% 30.01 in 10.0 mi NW 8.1 mph - N/A   Clear
1:54 AM 39.2 °F 33.0 °F 32.0 °F 75% 30.01 in 10.0 mi NW 9.2 mph - N/A   Clear
2:14 AM 39.2 °F 32.5 °F 32.0 °F 75% 30.02 in 10.0 mi NW 10.4 mph - N/A   Clear
2:35 AM 37.4 °F 30.8 °F 32.0 °F 81% 30.03 in 10.0 mi NW 9.2 mph - N/A   Clear
2:54 AM 37.4 °F 31.4 °F 30.2 °F 75% 30.03 in 10.0 mi NW 8.1 mph - N/A   Clear
3:15 AM 37.4 °F 30.8 °F 32.0 °F 81% 30.04 in 10.0 mi WNW 9.2 mph - N/A   Mostly Cloudy
3:34 AM 39.2 °F 34.2 °F 32.0 °F 75% 30.04 in 10.0 mi NW 6.9 mph - N/A   Overcast
3:54 AM 39.2 °F 32.5 °F 32.0 °F 75% 30.05 in 10.0 mi WNW 10.4 mph - N/A   Overcast
4:15 AM 41.0 °F 34.3 °F 32.0 °F 70% 30.06 in 10.0 mi WNW 11.5 mph - N/A   Overcast
4:34 AM 39.2 °F 32.0 °F 32.0 °F 75% 30.06 in 10.0 mi WNW 11.5 mph - N/A   Mostly Cloudy
4:55 AM 39.2 °F 32.5 °F 30.2 °F 70% 30.08 in 10.0 mi WNW 10.4 mph 16.1 mph N/A   Scattered Clouds
5:15 AM 39.2 °F 31.6 °F 30.2 °F 70% 30.09 in 10.0 mi NW 12.7 mph - N/A   Clear
5:35 AM 39.2 °F 32.0 °F 30.2 °F 70% 30.10 in 10.0 mi NW 11.5 mph - N/A   Clear
5:55 AM 37.4 °F 29.3 °F 30.2 °F 75% 30.11 in 10.0 mi NW 12.7 mph - N/A   Clear
6:15 AM 37.4 °F 30.3 °F 28.4 °F 70% 30.11 in 10.0 mi WNW 10.4 mph - N/A   Clear
6:35 AM 37.4 °F 29.8 °F 28.4 °F 70% 30.12 in 10.0 mi WNW 11.5 mph - N/A   Clear
6:54 AM 35.6 °F 28.0 °F 28.4 °F 75% 30.12 in 10.0 mi WNW 10.4 mph - N/A   Clear
7:15 AM 35.6 °F 28.0 °F 28.4 °F 75% 30.13 in 10.0 mi WNW 10.4 mph - N/A   Clear
7:35 AM 35.6 °F 27.5 °F 28.4 °F 75% 30.14 in 10.0 mi WNW 11.5 mph - N/A   Clear
7:54 AM 33.8 °F 25.8 °F 28.4 °F 81% 30.15 in 10.0 mi WNW 10.4 mph - N/A   Clear
8:15 AM 33.8 °F 25.8 °F 28.4 °F 81% 30.16 in 10.0 mi WNW 10.4 mph - N/A   Clear
8:35 AM 35.6 °F 28.0 °F 28.4 °F 75% 30.16 in 10.0 mi WNW 10.4 mph - N/A   Clear
8:55 AM 35.6 °F 28.6 °F 30.2 °F 81% 30.16 in 10.0 mi West 9.2 mph - N/A   Clear
9:15 AM 37.4 °F 29.8 °F 30.2 °F 75% 30.17 in 10.0 mi WNW 11.5 mph - N/A   Mostly Cloudy
9:35 AM 37.4 °F 29.3 °F 30.2 °F 75% 30.17 in 10.0 mi WNW 12.7 mph 17.3 mph N/A   Mostly Cloudy
9:55 AM 39.2 °F 31.6 °F 30.2 °F 70% 30.18 in 10.0 mi WNW 12.7 mph - N/A   Clear
10:15 AM 41.0 °F 33.9 °F 30.2 °F 65% 30.20 in 10.0 mi NW 12.7 mph 17.3 mph N/A   Clear
10:35 AM 42.8 °F 34.8 °F 30.2 °F 61% 30.19 in 10.0 mi NW 17.3 mph 24.2 mph N/A   Clear
10:55 AM 42.8 °F 35.8 °F 30.2 °F 61% 30.19 in 10.0 mi NNW 13.8 mph 24.2 mph N/A   Clear
11:15 AM 42.8 °F 34.3 °F 30.2 °F 61% 30.20 in 10.0 mi NW 19.6 mph 25.3 mph N/A   Clear
11:35 AM 44.6 °F 37.8 °F 30.2 °F 57% 30.19 in 10.0 mi NW 15.0 mph 20.7 mph N/A   Clear
11:55 AM 44.6 °F 38.8 °F 28.4 °F 53% 30.20 in 10.0 mi NNW 11.5 mph 25.3 mph N/A   Scattered Clouds
12:14 PM 44.6 °F 37.4 °F 28.4 °F 53% 30.20 in 10.0 mi NW 16.1 mph 20.7 mph N/A   Mostly Cloudy
12:35 PM 44.6 °F 37.8 °F 28.4 °F 53% 30.21 in 10.0 mi NNW 15.0 mph 20.7 mph N/A   Overcast
12:55 PM 44.6 °F 37.8 °F 28.4 °F 53% 30.21 in 10.0 mi NNW 15.0 mph 19.6 mph N/A   Overcast
1:15 PM 46.4 °F 40.7 °F 30.2 °F 53% 30.20 in 10.0 mi WNW 12.7 mph 18.4 mph N/A   Overcast
1:35 PM 46.4 °F 40.4 °F 28.4 °F 50% 30.19 in 10.0 mi WNW 13.8 mph 20.7 mph N/A   Overcast
1:55 PM 44.6 °F 38.1 °F 28.4 °F 53% 30.20 in 10.0 mi NW 13.8 mph 19.6 mph N/A   Mostly Cloudy
2:14 PM 44.6 °F 38.4 °F 28.4 °F 53% 30.20 in 10.0 mi WNW 12.7 mph - N/A   Mostly Cloudy
2:34 PM 44.6 °F 38.4 °F 28.4 °F 53% 30.19 in 10.0 mi WNW 12.7 mph 20.7 mph N/A   Mostly Cloudy
2:54 PM 46.4 °F 39.8 °F 28.4 °F 50% 30.18 in 10.0 mi NW 16.1 mph 21.9 mph N/A   Overcast
3:15 PM 46.4 °F 40.7 °F 30.2 °F 53% 30.17 in 10.0 mi WNW 12.7 mph 18.4 mph N/A   Mostly Cloudy
3:34 PM 46.4 °F 40.1 °F 30.2 °F 53% 30.16 in 10.0 mi WNW 15.0 mph - N/A   Mostly Cloudy
3:55 PM 44.6 °F 38.8 °F 28.4 °F 53% 30.16 in 10.0 mi NW 11.5 mph - N/A   Scattered Clouds
4:14 PM 46.4 °F 41.5 °F 30.2 °F 53% 30.16 in 10.0 mi WNW 10.4 mph - N/A   Scattered Clouds
4:34 PM 46.4 °F 40.7 °F 28.4 °F 50% 30.16 in 10.0 mi NW 12.7 mph - N/A   Scattered Clouds
4:55 PM 46.4 °F 41.9 °F 28.4 °F 50% 30.16 in 10.0 mi WNW 9.2 mph - N/A   Scattered Clouds
5:14 PM 44.6 °F 40.7 °F 28.4 °F 53% 30.15 in 10.0 mi WNW 6.9 mph - N/A   Scattered Clouds
5:35 PM 44.6 °F 41.4 °F 28.4 °F 53% 30.13 in 10.0 mi WNW 5.8 mph - N/A   Scattered Clouds
5:54 PM 44.6 °F - 30.2 °F 57% 30.13 in 10.0 mi Calm Calm - N/A   Clear
6:14 PM 42.8 °F 40.1 °F 30.2 °F 61% 30.14 in 10.0 mi NW 4.6 mph - N/A   Clear
6:34 PM 41.0 °F 39.0 °F 30.2 °F 65% 30.14 in 10.0 mi NNW 3.5 mph - N/A   Clear
6:55 PM 39.2 °F - 30.2 °F 70% 30.14 in 10.0 mi Calm Calm - N/A   Clear
7:15 PM 39.2 °F - 30.2 °F 70% 30.12 in 10.0 mi Calm Calm - N/A   Clear
7:35 PM 39.2 °F - 30.2 °F 70% 30.12 in 10.0 mi Calm Calm - N/A   Clear
7:55 PM 35.6 °F - 30.2 °F 81% 30.12 in 10.0 mi Calm Calm - N/A   Clear
8:02 PM 35.6 °F - 28.4 °F 75% 30.11 in 10.0 mi Calm Calm - N/A   Clear
8:55 PM 30.2 °F 25.4 °F 26.6 °F 86% 30.08 in 10.0 mi South 4.6 mph - N/A   Clear
9:00 PM 30.2 °F 25.4 °F 26.6 °F 86% 30.08 in 10.0 mi South 4.6 mph - N/A   Clear
10:01 PM 33.8 °F 27.0 °F 28.4 °F 81% 30.05 in 10.0 mi South 8.1 mph - N/A   Clear
10:21 PM 33.8 °F 28.6 °F 28.4 °F 81% 30.05 in 10.0 mi South 5.8 mph - N/A   Clear
11:01 PM 33.8 °F 27.7 °F 28.4 °F 81% 30.04 in 10.0 mi South 6.9 mph - N/A   Clear
11:21 PM 33.8 °F 26.4 °F 28.4 °F 81% 30.02 in 10.0 mi South 9.2 mph - N/A   Clear
11:41 PM 33.8 °F 25.8 °F 28.4 °F 81% 30.00 in 10.0 mi SSE 10.4 mph - N/A   Clear